Tracking 28096 objects as of 29-Sep-2023
HD Live streaming from Space Station
objects crossing your sky now

STARLINK-30333

Track STARLINK-30333 now!
10-day predictions
STARLINK-30333 is classified as:


NORAD ID: 57702
Int'l Code: 2023-129E
Perigee: 531.9 km
Apogee: 534.7 km
Inclination: 43.0 °
Period: 95.2 minutes
Semi major axis: 6904 km
RCS: Unknown
Launch date: August 27, 2023
Source: United States (US)
Launch site: AIR FORCE EASTERN TEST RANGE (AFETR)
Your satellite tracking list
Your tracking list is empty




NASA's NSSDC Master Catalog

Two Line Element Set (TLE):
1 57702U 23129E   23271.91668981 -.02242437  00000-0 -13669+0 0  9991
2 57702  42.9995 292.1424 0001982 263.4537 299.1421 15.13294429  5907
Source of the keplerian elements: AFSPC